GFSGL_700_temp_231.txt.gz
Temp
11 12 12 12 12 12 12 12 12 12 12 12 13 13 13 12 13 13 12 12 12 12 12 12 11 10 10 10 9 9 8 8 7 6 5 4 4 3 2 2 2 2 1
11 10 11 12 12 12 12 12 12 12 12 12 13 13 13 13 13 13 12 12 12 12 12 12 11 10 10 9 9 9 8 8 7 6 5 4 3 2 1 1 1 1 1
11 11 11 12 12 12 12 12 12 12 13 13 13 13 14 14 14 13 13 12 12 12 12 12 11 11 10 9 9 9 8 8 7 6 5 4 3 2 1 -0 -0 -1 -1
12 12 12 12 12 12 12 12 12 12 12 13 13 13 14 14 14 14 13 12 12 12 12 11 11 11 10 9 9 9 8 8 7 6 5 4 3 1 0 -0 -1 -1 -1
13 12 12 12 12 12 12 12 12 12 13 13 13 13 14 14 14 14 13 12 11 12 12 11 11 11 10 10 9 9 8 8 7 6 5 4 3 2 1 0 -0 -1 -1
13 13 12 12 12 12 12 12 12 12 12 13 13 13 14 14 14 14 13 13 12 12 12 12 11 11 10 10 9 8 8 7 7 6 5 5 4 3 1 -0 -0 -1 -0
13 13 12 12 12 12 12 12 12 12 12 13 13 13 14 14 14 14 14 13 12 12 12 12 11 11 11 10 10 9 8 8 7 7 5 5 4 2 1 -0 -0 -0 -0
13 13 12 12 12 12 12 12 12 12 12 12 13 13 14 14 14 14 14 13 12 12 12 12 12 11 11 10 10 9 8 8 7 7 6 5 3 2 0 -1 -0 -0 -0
14 13 12 12 12 12 12 12 12 12 12 12 12 13 14 14 14 14 13 13 13 12 12 12 12 11 11 10 10 9 8 8 7 7 6 5 4 3 -1 -0 -1 -0 -0
14 14 12 11 11 12 12 12 12 12 12 12 12 13 14 14 14 14 14 14 13 12 12 12 12 11 10 10 10 9 8 8 7 7 6 5 4 3 1 -1 -1 -0 -1
14 14 13 12 11 11 11 11 11 12 12 12 12 13 14 14 14 14 14 14 13 13 12 12 12 11 10 10 9 9 8 8 8 7 6 5 5 4 2 -0 -0 0 -0
13 14 13 12 11 11 11 11 11 11 12 12 12 13 13 14 14 14 14 14 13 13 12 12 12 11 10 10 9 9 8 8 8 7 6 5 5 5 4 2 1 1 1
13 13 13 12 12 11 11 11 11 11 11 11 13 13 13 14 13 14 13 13 13 13 13 12 12 11 10 10 9 9 9 8 8 7 7 5 5 5 4 3 3 2 1
11 12 13 13 12 11 11 11 11 11 11 12 12 12 13 13 13 13 13 14 14 13 13 12 11 11 10 10 9 9 9 8 8 8 8 6 5 5 4 4 3 3 1
10 9 12 12 11 10 10 11 11 12 12 12 12 11 12 12 12 12 12 13 13 13 13 13 12 11 11 10 9 9 9 9 8 8 8 7 5 5 5 4 3 3 2
11 12 11 10 11 10 11 11 11 12 11 11 12 12 12 12 11 11 12 13 12 12 12 12 12 12 11 10 10 9 9 8 8 8 8 8 6 5 5 4 4 3 3
12 10 9 10 9 9 8 11 10 11 12 11 12 13 12 11 11 11 11 11 11 12 12 12 11 11 12 11 10 10 9 9 8 8 8 8 7 6 6 5 4 4 4
9 9 9 9 10 8 6 10 11 11 11 11 11 11 12 11 10 10 10 10 11 11 12 11 12 11 11 11 10 9 9 9 9 8 8 8 7 7 6 6 5 4 4
9 8 9 10 10 8 9 10 11 12 11 11 11 11 10 10 10 8 8 8 10 10 9 11 11 11 11 11 10 9 9 9 9 8 8 8 8 7 7 6 6 5 4
10 9 9 10 10 10 11 11 12 12 11 11 12 12 11 11 10 10 10 9 9 10 10 12 11 12 10 10 10 9 9 9 9 9 8 8 8 8 7 7 6 6 5
10 10 9 9 10 11 11 11 11 11 12 11 11 11 11 10 9 9 8 8 9 9 9 11 9 10 10 9 9 9 8 9 9 8 8 8 8 8 7 7 7 6 6
8 9 9 9 9 10 10 11 11 12 11 11 11 11 11 10 9 9 10 10 8 7 8 8 10 10 9 9 8 9 8 8 8 8 8 7 7 8 8 7 7 6 6
7 8 8 9 9 9 10 10 10 10 10 10 11 10 10 10 11 10 9 8 8 7 8 8 8 9 9 8 8 7 7 8 8 8 8 7 7 7 8 8 7 6 6
5 6 6 7 8 8 9 9 9 9 9 9 9 9 9 9 9 9 7 7 6 6 7 7 8 9 9 9 7 7 6 7 7 7 7 8 7 7 7 7 7 7 7
5 5 6 6 6 6 7 8 8 8 8 8 8 8 9 9 9 7 6 6 6 6 6 7 7 7 8 7 7 7 7 7 6 6 6 7 7 7 7 7 7 7 7
5 4 5 5 5 6 6 7 8 8 8 8 7 7 7 7 6 6 6 6 6 6 7 6 6 6 7 6 7 7 7 7 7 6 6 6 6 6 7 6 7 7 7

GFSGL_700_temp_234.txt.gz
Temp
12 12 12 12 12 12 12 12 13 14 14 14 14 14 13 12 12 12 12 12 13 13 12 12 11 11 11 10 9 9 9 8 7 6 5 4 3 3 2 1 1 -0 1
12 12 12 12 12 13 13 12 12 13 14 14 14 14 14 13 12 12 12 12 12 12 12 12 12 11 11 10 9 9 9 8 7 6 5 4 3 2 1 0 -0 -1 -1
12 12 12 12 12 12 13 12 12 13 13 14 14 14 14 14 13 12 12 12 12 12 12 12 12 11 11 10 9 9 9 8 7 6 5 4 3 2 0 1 -0 -1 -1
13 13 13 13 13 13 12 12 12 13 13 13 14 14 14 14 13 12 13 13 12 12 12 12 12 11 11 10 9 8 9 8 7 6 5 4 3 2 1 0 -0 -1 -0
13 12 13 13 12 12 13 12 12 12 13 13 14 14 13 14 14 13 13 12 12 12 12 12 11 11 11 10 9 8 8 8 6 5 5 4 3 2 1 -0 -0 -0 -1
13 13 13 13 12 12 12 13 13 12 12 13 13 13 13 13 14 14 13 12 13 12 12 12 11 11 11 10 9 8 8 8 7 5 4 3 2 1 0 -0 -0 -1 -1
14 14 14 13 12 12 12 12 12 12 12 12 12 13 13 13 14 14 13 13 13 12 12 12 12 11 11 10 9 8 8 8 6 5 4 4 2 1 -0 -0 -0 -0 -1
14 14 13 13 12 12 12 12 12 12 12 12 12 12 13 13 13 13 13 13 13 13 12 12 12 11 11 10 9 8 8 8 6 5 5 4 2 1 -0 -0 -0 -0 -1
14 14 14 13 13 12 11 12 12 12 12 12 12 12 12 13 13 13 13 13 13 13 12 12 11 11 11 10 9 9 8 8 7 6 5 5 4 2 1 -0 -0 -0 -0
14 14 13 13 13 13 12 12 12 12 12 12 12 12 12 12 12 13 13 13 13 13 12 12 12 11 10 10 10 9 8 8 7 6 6 6 5 3 1 1 0 0 0
13 13 13 13 13 12 11 11 11 11 11 11 11 12 12 12 12 13 13 12 12 13 12 12 12 11 10 10 9 9 8 8 7 6 6 6 5 3 2 1 0 0 -0
14 13 12 12 12 11 11 11 11 11 11 12 12 12 12 12 12 12 12 12 12 12 12 12 12 11 10 10 10 9 8 9 8 7 6 5 5 4 3 3 2 1 1
13 13 12 12 12 13 12 11 11 11 11 11 11 12 12 12 12 12 12 12 11 12 13 12 12 12 11 10 10 9 8 9 8 7 6 6 6 5 4 4 2 2 2
12 12 12 12 12 12 12 12 11 11 11 10 10 11 11 12 12 12 12 11 11 12 12 12 12 12 11 10 10 9 9 9 8 8 7 6 6 6 4 4 3 2 3
11 11 12 11 11 11 11 11 11 11 11 11 11 10 10 11 11 12 11 10 11 11 12 12 12 11 11 11 10 10 9 8 8 8 7 7 6 6 5 4 4 3 2
10 11 12 12 11 11 11 11 11 12 11 11 11 11 11 10 11 11 11 11 11 10 11 12 12 11 11 11 10 10 9 8 8 8 8 7 6 6 6 4 4 4 3
9 9 10 10 11 11 11 11 11 12 11 11 11 11 10 11 10 10 10 11 11 10 10 11 11 11 11 10 10 10 9 9 8 9 8 7 7 6 6 5 4 4 4
10 10 10 11 11 11 10 9 10 11 10 9 9 10 10 10 10 9 9 10 10 10 9 9 10 10 10 10 10 9 9 9 8 9 8 8 7 7 6 6 5 5 5
10 10 10 10 10 10 9 9 9 8 8 9 9 8 9 10 10 8 9 8 10 7 8 8 9 9 10 10 10 9 9 9 8 8 8 8 8 7 7 6 6 6 5
9 10 11 11 11 11 10 9 8 9 9 9 9 10 10 10 10 9 9 8 8 9 7 9 9 9 10 9 11 9 9 8 8 8 8 8 8 8 6 6 6 6 6
9 10 11 11 10 10 9 9 8 8 9 9 9 9 10 10 10 9 8 8 8 8 8 7 8 9 10 9 10 10 8 8 8 8 8 8 8 7 7 6 6 6 6
9 10 11 10 10 9 9 9 9 10 9 10 10 9 10 10 9 9 8 7 8 8 8 8 7 7 8 8 9 9 8 8 8 8 8 8 8 8 7 7 6 6 6
8 9 10 9 9 9 9 9 9 10 9 9 10 10 10 10 9 9 8 8 8 8 8 7 7 7 7 8 8 7 7 6 7 8 8 7 8 8 7 7 7 6 6
7 8 8 8 7 7 7 7 8 9 9 9 9 9 9 9 9 9 8 8 8 7 7 7 7 7 7 7 7 7 7 6 6 7 7 7 7 7 8 7 7 6 6
6 7 6 6 6 7 7 7 7 8 8 8 8 8 8 9 9 8 7 7 7 6 6 6 6 6 6 6 6 6 7 6 6 6 6 6 6 7 7 7 7 7 6
5 5 5 5 6 5 6 6 7 7 7 7 6 6 7 7 7 6 6 7 6 6 6 6 6 5 6 6 6 7 6 6 6 6 6 6 5 6 7 7 7 7 6

GFSGL_700_temp_237.txt.gz
Temp
13 13 13 14 14 13 13 14 14 14 14 14 14 13 13 13 14 12 13 13 12 12 12 12 12 11 11 10 9 9 9 8 7 5 3 4 2 1 1 1 1 1 0
13 13 13 13 13 13 13 13 13 14 14 14 14 13 13 13 13 13 13 13 13 12 12 12 12 12 11 10 9 9 9 8 7 6 4 2 2 1 2 1 1 0 -0
13 13 13 13 13 13 13 13 13 13 13 14 14 13 14 13 13 12 12 13 13 13 12 12 12 11 11 10 9 9 9 8 8 5 4 3 3 1 1 1 0 0 -0
14 13 14 13 13 13 13 13 13 13 13 13 13 14 14 13 13 12 13 13 13 13 12 12 12 11 11 10 9 9 9 8 7 6 4 3 3 1 1 0 -0 -1 -1
13 13 13 13 13 13 14 13 13 13 13 13 13 13 13 13 13 13 13 13 13 13 12 12 12 11 11 11 9 9 9 8 7 6 4 3 2 1 -0 -0 -0 0 0
14 14 13 13 13 13 13 13 13 13 13 13 13 13 12 12 12 13 12 13 13 13 13 12 12 12 11 11 9 9 9 8 7 6 4 3 1 0 -0 0 -0 -0 0
14 14 14 13 13 13 12 12 12 12 13 12 12 12 12 12 12 12 12 12 13 13 13 12 12 11 11 10 10 9 9 8 7 6 5 3 2 0 -0 -0 -0 -0 0
14 14 14 13 14 13 12 12 12 11 12 12 12 12 12 12 12 12 12 12 12 13 13 12 11 11 11 11 10 9 9 8 7 6 5 4 3 2 0 0 0 -0 -0
14 14 14 14 14 13 13 12 12 11 11 12 12 12 12 12 12 12 11 12 12 13 13 12 11 11 11 11 10 9 9 8 7 7 5 4 3 2 1 1 1 1 1
14 14 14 14 14 14 13 12 12 12 12 11 11 12 12 11 12 12 11 12 12 12 13 13 12 11 11 11 10 9 9 8 7 7 6 5 3 2 1 1 1 2 2
14 14 14 14 14 14 14 13 13 12 12 12 11 11 11 11 11 11 11 11 12 12 12 12 12 11 11 11 10 9 9 8 8 7 7 5 4 4 3 2 1 1 2
13 13 13 13 13 13 13 13 13 13 12 12 12 11 11 11 12 11 11 11 11 11 12 12 12 11 11 11 10 9 9 8 9 8 6 5 5 4 3 2 2 2 2
14 14 14 14 13 12 12 13 13 12 12 11 11 11 11 11 11 11 11 12 11 11 11 12 12 11 11 11 10 10 9 9 8 7 6 5 5 5 3 3 3 2 2
13 14 13 13 12 12 12 11 11 11 11 11 11 11 12 11 11 11 11 11 11 11 11 11 12 12 10 10 10 10 9 9 8 7 6 6 5 5 3 3 3 2 3
13 13 12 12 12 11 12 11 11 11 11 12 11 10 11 10 11 11 10 10 10 10 10 10 11 11 11 10 10 10 9 9 8 7 7 7 6 5 4 3 3 3 3
12 12 12 11 11 12 11 11 11 11 12 12 11 10 10 10 10 11 10 10 10 10 10 10 11 11 11 10 10 9 9 9 9 8 7 7 6 5 5 4 4 3 3
11 11 10 10 11 11 10 10 10 10 10 11 11 10 10 11 10 10 10 9 9 9 10 10 9 10 11 10 10 9 9 9 9 8 7 7 7 6 5 5 4 4 4
10 10 10 10 10 10 10 11 11 11 10 11 10 10 10 10 11 10 9 8 9 8 8 9 8 9 9 10 10 9 9 9 9 9 8 7 7 6 6 5 5 4 4
9 10 10 10 11 10 10 10 10 10 9 9 9 8 9 10 10 10 9 8 8 8 7 8 7 7 8 9 9 9 9 8 9 9 8 8 7 7 6 6 5 5 5
10 10 10 10 11 10 10 10 10 10 8 7 7 10 11 10 9 9 9 9 9 8 8 8 7 6 7 9 8 9 9 8 8 9 8 8 7 7 7 6 6 5 5
9 10 10 10 10 11 10 9 9 9 9 9 8 10 10 8 8 9 9 8 8 8 7 7 7 6 6 8 7 9 9 8 8 8 8 8 8 7 7 7 6 5 5
8 9 10 10 10 10 10 10 10 9 10 9 9 8 8 8 8 8 8 7 8 8 8 7 7 6 6 6 7 7 7 7 7 7 8 8 8 8 7 7 7 6 6
8 8 8 9 10 8 9 9 9 9 10 10 8 8 8 8 8 8 8 8 9 9 8 7 7 7 6 7 7 6 7 7 7 7 7 7 7 8 7 7 6 6 6
7 7 7 8 7 7 8 8 8 8 8 8 8 8 9 8 8 8 8 8 8 8 8 8 7 7 6 6 6 6 6 7 8 7 6 6 7 7 7 7 7 6 6
7 7 7 7 6 6 6 7 7 8 8 8 8 8 8 8 8 7 8 7 7 7 7 7 6 6 6 6 6 5 6 7 6 6 7 6 6 7 6 6 6 6 6
6 6 6 6 5 6 6 6 6 7 7 7 7 7 7 7 6 6 6 6 6 6 6 6 6 5 5 5 6 5 6 6 7 6 6 5 5 6 6 6 6 6 6

GFSGL_700_temp_240.txt.gz
Temp
14 13 13 14 14 14 14 14 14 14 14 14 14 14 13 13 13 13 12 13 13 13 12 12 12 12 11 10 10 9 8 7 6 3 3 1 1 1 1 1 1 0 0
13 13 13 13 13 14 14 14 14 14 14 14 14 13 13 13 13 13 13 13 14 13 12 11 11 12 11 10 10 9 8 8 7 4 4 3 2 1 0 0 0 0 -1
13 13 13 13 13 13 13 13 13 13 13 13 14 13 13 13 13 13 13 13 13 13 13 12 11 11 11 10 10 9 8 8 6 6 4 3 1 1 1 0 -0 -0 -1
15 14 14 13 13 13 13 13 13 13 13 13 13 13 13 12 12 12 13 13 13 13 13 12 11 11 11 11 10 9 8 8 6 6 4 3 1 1 0 0 0 -0 -0
14 14 14 14 13 13 13 13 13 13 13 13 13 13 12 12 12 12 13 13 13 13 13 12 12 11 11 10 10 9 9 8 7 6 5 3 1 0 0 -0 -0 0 0
11 14 14 14 14 13 13 13 13 13 13 13 13 12 12 12 12 12 12 12 13 13 13 13 12 11 11 10 10 9 9 8 7 6 5 4 2 1 0 0 -0 -0 -0
14 15 14 14 14 13 13 13 13 13 12 12 12 12 12 12 12 12 12 12 12 12 13 13 12 11 10 11 10 9 9 9 7 6 5 4 3 2 1 1 0 -0 -0
14 14 14 14 14 14 13 13 13 12 12 12 11 12 12 12 12 11 11 12 12 12 12 12 12 12 11 11 10 9 9 9 8 7 6 5 4 2 2 1 0 -0 -0
13 14 14 14 14 14 14 13 13 13 12 12 11 11 11 11 12 11 11 11 11 12 12 12 12 12 11 11 10 10 9 9 8 7 6 6 6 4 2 2 2 1 -0
14 14 14 14 14 14 14 14 14 13 12 12 11 11 11 11 11 11 11 11 11 11 12 12 12 12 11 11 10 10 10 9 8 8 7 6 6 5 4 2 1 1 1
13 13 14 14 14 14 14 14 14 13 13 12 12 11 11 12 11 11 11 11 11 11 11 12 12 12 11 10 10 10 10 9 8 8 8 7 5 5 4 4 3 2 2
13 13 13 14 14 13 13 13 13 13 13 13 12 12 11 11 11 11 11 11 11 11 11 11 11 12 11 10 10 10 9 10 9 9 8 6 6 6 5 4 3 3 3
13 13 13 13 13 14 13 13 12 12 13 12 12 12 12 12 11 11 11 11 11 11 11 11 11 11 11 10 9 10 9 10 10 9 7 7 6 6 6 4 4 3 3
13 13 13 13 13 13 13 12 12 12 12 12 11 11 11 11 11 10 10 11 11 11 10 10 10 11 11 10 9 9 9 9 9 9 8 6 6 6 6 5 4 3 3
13 13 13 13 14 13 12 12 11 11 11 12 11 11 10 11 11 10 10 11 10 11 10 10 10 11 11 10 9 9 9 9 9 9 8 8 7 6 5 5 4 4 3
12 13 13 13 12 12 12 12 11 11 11 11 11 11 11 10 10 11 9 10 10 10 10 10 9 10 10 10 9 8 9 9 9 9 9 8 7 7 6 6 5 5 4
10 11 11 12 12 11 11 11 11 11 11 11 10 10 10 10 9 9 10 10 9 9 9 10 8 9 9 9 8 8 9 9 9 9 8 8 8 7 6 6 6 5 4
9 9 9 9 9 10 10 10 10 11 11 11 12 11 10 10 10 10 10 10 9 9 9 9 8 7 8 8 9 8 8 8 8 8 8 8 8 8 7 6 6 6 5
8 9 9 9 9 9 10 10 10 11 10 10 10 9 9 7 7 8 8 9 9 10 10 9 8 7 7 8 8 8 8 8 8 8 8 8 8 7 7 7 6 5 6
8 8 8 9 9 10 10 10 10 10 10 9 8 8 7 6 7 7 8 9 10 10 9 9 8 8 7 6 6 7 7 8 7 8 8 8 8 7 7 7 6 6 6
8 8 8 8 9 9 10 10 10 9 10 9 9 7 7 7 7 8 8 9 10 10 10 9 8 8 7 7 6 7 7 7 7 7 8 8 8 7 7 7 6 6 6
7 8 8 8 8 9 9 10 10 9 9 10 9 9 9 9 9 8 9 9 10 11 11 8 8 7 7 6 6 6 6 6 7 7 8 8 7 7 7 7 7 6 6
5 6 7 8 8 8 9 9 10 10 9 9 9 9 9 9 9 9 10 10 10 10 9 8 7 7 7 7 6 6 6 6 7 7 7 7 7 7 7 6 6 6 6
5 5 6 7 7 7 7 8 9 9 9 9 9 9 9 9 9 10 10 10 10 8 7 6 7 7 6 6 6 6 6 5 6 6 6 7 7 7 7 6 6 6 6
4 5 6 7 7 6 6 7 7 7 8 8 8 9 9 9 9 9 9 9 8 7 7 6 7 7 6 6 6 6 6 6 6 6 6 6 6 6 6 6 6 6 5
4 5 6 6 6 6 6 6 6 6 7 7 7 8 8 8 8 8 7 7 7 7 6 6 6 6 6 6 6 6 6 6 5 5 5 5 6 6 7 6 6 6 5